Wildfire 9

operational
NORAD ID: 57765 Int'l Des: 2023-133 Owner: SDA Country: US
LEOCIRCULARPOLAR

About Wildfire 9

Description loading...

Live Position

Loading 3D Globe...

Upcoming Passes

Altitude History

Altitude vs Time

uPlot chart will show altitude changes over time

Two-Line Element Set

1 57765U 23133J 26063.12273366 .00000123 00000-0 98068-4 0 9990
2 57765 81.0014 108.7898 0004850 301.1590 58.9090 13.85384983126476
Epoch: Mar 4, 2026 • Age: 19 hours

Current Status

Altitude 953.5 km
Velocity 7.38 km/s
Sub-Earth Point 38.72°N, 170.02°W
Launch Date Sep 2, 2023
Age 2.5 years
Type other

Technical Details

Classification Payload
Mass 300.00 kg
Dry Mass 300.00 kg
Total Mass 300.00 kg
Length 1.00 m
Diameter 0.40 m
Span 2.50 m
Shape Box + 2 panels
Manufacturer TYVAK/LMSSD
Bus Type Mavericks
Phase Status In Orbit
Owner/State SDA/US

Large Constellations

Loading constellations...